Location: Cheyres
(46.8153°N, 6.7877°E)
Time: 04:05:35
(UTC+00:00)

Cosmos 1470 Rocket - Pass Details

Date: 11 May 2021
Orbit: 604 x 633 km, 82.5° (Epoch: 18 June)

Event Time Altitude Azimuth Distance (km) Brightness Sun altitude
Rises 20:45:21 0° 348° (NNW) 2,939 8.2 -15.3°
Reaches altitude 10° 20:47:36 10° 347° (NNW) 2,028 7.2 -15.6°
Maximum altitude 20:52:04 71° 264° (W) 673 3.8 -16.1°
Enters shadow 20:55:00 21° 183° (S) 1,416 5.0 -16.4°
